This is the latest recevied weather packets stored in our database for station/object N3EYQ. If no packets are shown the sender has not sent any weather packets the latest 10 day(s).
| Time | Temp. | Humidity | Pressure | Rain* | Wind** | Luminosity | Snow |
|---|---|---|---|---|---|---|---|
| 1777837814 | 15° C | 32% | 1010 hPa | 0 mm | - | - | - |
| 1777837213 | 14.44° C | 31% | 1010 hPa | 0 mm | - | - | - |
| 1777836613 | 14.44° C | 32% | 1010.3 hPa | 0 mm | - | - | - |
| 1777836013 | 13.33° C | 33% | 1010.6 hPa | 0 mm | - | - | - |
| 1777835413 | 13.89° C | 34% | 1010.6 hPa | 0 mm | - | - | - |
| 1777834813 | 13.89° C | 34% | 1011 hPa | 0 mm | - | - | - |
| 1777834213 | 13.89° C | 34% | 1011 hPa | 0 mm | - | - | - |
| 1777833612 | 13.89° C | 37% | 1011 hPa | 0 mm | - | - | - |
| 1777833012 | 13.89° C | 35% | 1011 hPa | 0 mm | - | - | - |
| 1777832412 | 13.89° C | 37% | 1011.3 hPa | 0 mm | - | - | - |
| 1777831812 | 13.33° C | 36% | 1011.3 hPa | 0 mm | - | - | - |
| 1777831212 | 12.78° C | 37% | 1011.3 hPa | 0 mm | - | - | - |
| 1777830611 | 12.78° C | 37% | 1011.3 hPa | 0 mm | - | - | - |
| 1777830012 | 12.22° C | 39% | 1011.6 hPa | 0 mm | - | - | - |
| 1777829411 | 12.22° C | 37% | 1011.6 hPa | 0 mm | - | - | - |
| 1777828811 | 12.22° C | 39% | 1011.6 hPa | 0 mm | - | - | - |
| 1777828211 | 12.22° C | 41% | 1011.6 hPa | 0 mm | - | - | - |
| 1777827611 | 11.67° C | 40% | 1011.6 hPa | 0 mm | - | - | - |
| 1777827011 | 11.67° C | 41% | 1011.6 hPa | 0 mm | - | - | - |
| 1777826411 | 11.67° C | 41% | 1011.6 hPa | 0 mm | - | - | - |
| 1777825811 | 11.11° C | 41% | 1012 hPa | 0 mm | - | - | - |
| 1777825211 | 11.11° C | 40% | 1012 hPa | 0 mm | - | - | - |
| 1777824610 | 11.11° C | 40% | 1012 hPa | 0 mm | - | - | - |
| 1777824011 | 11.11° C | 41% | 1012 hPa | 0 mm | - | - | - |
| 1777823410 | 11.67° C | 38% | 1012 hPa | 0 mm | - | - | - |
* Rain latest hour (hover to see other rain measurements)
** Current wind speed in m/s (hover to see current wind gust speed)